Find Starlink 38039

NORAD ID: 69719 Int'l Des: 2026-147 Owner: SPXS Country: US Constellation: starlink operational
LEOCIRCULARRETROGRADE

現在のビュー

3D地球を読み込み中...

About Starlink 38039

Starlink 38039 (NORAD 69719) is a starlink constellation satellite (v2 mini) launched Jun 28, 2026 by SPXS of US. It operates in LEO, CIRCULAR, RETROGRADE orbit with a mass of 575.00 kg.

次回通過

Passes for default location (London). Set your location on the main map for personalized predictions.

高度履歴

Loading altitude history...

軌道要素

1 69719U 26147R 26225.16668980 -.00036657 00000-0 -11375-2 0 9991
2 69719 97.2840 262.1038 0001210 94.8150 162.5133 15.33475699 6084
Epoch: Aug 13, 2026 • Age: 11 hours

現在のステータス

高度 474.0 km
遠地点 / 近地点 N/A
速度 7.63 km/s
衛星直下点 -21.01°S, 73.51°E
打ち上げ日 Jun 28, 2026
運用期間 0.1 years
タイプ internet

技術仕様

分類 Payload
質量 575.00 kg
乾燥質量 530.00 kg
総質量 575.00 kg
長さ 0.30 m
直径 4.10 m
スパン 29.00 m
形状 Box + pan
製造者 SPXS
バスタイプ Starlink V2MO
フェーズステータス In Orbit
所有者/国 SPXS/US

Most Searched